Year,Month,Day,Hour,Minute,Value (Times are PST for temperature in C)
2015,07,18,00,00,19.00
2015,07,18,00,01,19.00
2015,07,18,00,02,19.00
2015,07,18,00,03,19.00
2015,07,18,00,04,19.00
2015,07,18,00,05,18.90
2015,07,18,00,06,18.90
2015,07,18,00,07,18.90
2015,07,18,00,08,18.90
2015,07,18,00,09,18.90
2015,07,18,00,10,18.90
2015,07,18,00,11,18.90
2015,07,18,00,12,18.90
2015,07,18,00,13,18.90
2015,07,18,00,14,18.90
2015,07,18,00,15,18.90
2015,07,18,00,16,18.80
2015,07,18,00,17,18.80
2015,07,18,00,18,18.80
2015,07,18,00,19,18.80
2015,07,18,00,20,18.80
2015,07,18,00,21,18.80
2015,07,18,00,22,18.80
2015,07,18,00,23,18.80
2015,07,18,00,24,18.80
2015,07,18,00,25,18.80
2015,07,18,00,26,18.80
2015,07,18,00,27,18.70
2015,07,18,00,28,18.70
2015,07,18,00,29,18.70
2015,07,18,00,30,18.70
2015,07,18,00,31,18.70
2015,07,18,00,32,18.70
2015,07,18,00,33,18.70
2015,07,18,00,34,18.60
2015,07,18,00,35,18.60
2015,07,18,00,36,18.60
2015,07,18,00,37,18.60
2015,07,18,00,38,18.60
2015,07,18,00,39,18.60
2015,07,18,00,40,18.50
2015,07,18,00,41,18.50
2015,07,18,00,42,18.50
2015,07,18,00,43,18.50
2015,07,18,00,44,18.40
2015,07,18,00,45,18.40
2015,07,18,00,46,18.40
2015,07,18,00,47,18.40
2015,07,18,00,48,18.40
2015,07,18,00,49,18.40
2015,07,18,00,50,18.30
2015,07,18,00,51,18.30
2015,07,18,00,52,18.30
2015,07,18,00,53,18.30
2015,07,18,00,54,18.30
2015,07,18,00,55,18.30
2015,07,18,00,56,18.30
2015,07,18,00,57,18.20
2015,07,18,00,58,18.20
2015,07,18,00,59,18.20
2015,07,18,01,00,18.20
2015,07,18,01,01,18.20
2015,07,18,01,02,18.10
2015,07,18,01,03,18.10
2015,07,18,01,04,18.10
2015,07,18,01,05,18.10
2015,07,18,01,06,18.10
2015,07,18,01,07,18.00
2015,07,18,01,08,18.00
2015,07,18,01,09,18.00
2015,07,18,01,10,17.90
2015,07,18,01,11,17.90
2015,07,18,01,12,17.90
2015,07,18,01,13,17.90
2015,07,18,01,14,17.90
2015,07,18,01,15,17.90
2015,07,18,01,16,17.90
2015,07,18,01,17,17.90
2015,07,18,01,18,17.90
2015,07,18,01,19,17.80
2015,07,18,01,20,17.80
2015,07,18,01,21,17.80
2015,07,18,01,22,17.80
2015,07,18,01,23,17.80
2015,07,18,01,24,17.80
2015,07,18,01,25,17.80
2015,07,18,01,26,17.80
2015,07,18,01,27,17.80
2015,07,18,01,28,17.80
2015,07,18,01,29,17.80
2015,07,18,01,30,17.80
2015,07,18,01,31,17.80
2015,07,18,01,32,17.70
2015,07,18,01,33,17.70
2015,07,18,01,34,17.70
2015,07,18,01,35,17.70
2015,07,18,01,36,17.70
2015,07,18,01,37,17.70
2015,07,18,01,38,17.70
2015,07,18,01,39,17.70
2015,07,18,01,40,17.70
2015,07,18,01,41,17.70
2015,07,18,01,42,17.60
2015,07,18,01,43,17.60
2015,07,18,01,44,17.60
2015,07,18,01,45,17.60
2015,07,18,01,46,17.60
2015,07,18,01,47,17.60
2015,07,18,01,48,17.60
2015,07,18,01,49,17.60
2015,07,18,01,50,17.60
2015,07,18,01,51,17.60
2015,07,18,01,52,17.60
2015,07,18,01,53,17.60
2015,07,18,01,54,17.60
2015,07,18,01,55,17.60
2015,07,18,01,56,17.50
2015,07,18,01,57,17.50
2015,07,18,01,58,17.50
2015,07,18,01,59,17.50
2015,07,18,02,00,17.50
2015,07,18,02,01,17.40
2015,07,18,02,02,17.40
2015,07,18,02,03,17.40
2015,07,18,02,04,17.40
2015,07,18,02,05,17.40
2015,07,18,02,06,17.40
2015,07,18,02,07,17.40
2015,07,18,02,08,17.30
2015,07,18,02,09,17.30
2015,07,18,02,10,17.30
2015,07,18,02,11,17.30
2015,07,18,02,12,17.30
2015,07,18,02,13,17.30
2015,07,18,02,14,17.30
2015,07,18,02,15,17.30
2015,07,18,02,16,17.30
2015,07,18,02,17,17.30
2015,07,18,02,18,17.30
2015,07,18,02,19,17.20
2015,07,18,02,20,17.20
2015,07,18,02,21,17.20
2015,07,18,02,22,17.20
2015,07,18,02,23,17.20
2015,07,18,02,24,17.20
2015,07,18,02,25,17.20
2015,07,18,02,26,17.20
2015,07,18,02,27,17.20
2015,07,18,02,28,17.20
2015,07,18,02,29,17.20
2015,07,18,02,30,17.10
2015,07,18,02,31,17.10
2015,07,18,02,32,17.10
2015,07,18,02,33,17.10
2015,07,18,02,34,17.10
2015,07,18,02,35,17.10
2015,07,18,02,36,17.10
2015,07,18,02,37,17.10
2015,07,18,02,38,17.10
2015,07,18,02,39,17.00
2015,07,18,02,40,17.00
2015,07,18,02,41,17.00
2015,07,18,02,42,17.00
2015,07,18,02,43,17.00
2015,07,18,02,44,16.90
2015,07,18,02,45,16.90
2015,07,18,02,46,16.90
2015,07,18,02,47,16.90
2015,07,18,02,48,16.90
2015,07,18,02,49,16.80
2015,07,18,02,50,16.80
2015,07,18,02,51,16.80
2015,07,18,02,52,16.80
2015,07,18,02,53,16.80
2015,07,18,02,54,16.80
2015,07,18,02,55,16.70
2015,07,18,02,56,16.70
2015,07,18,02,57,16.70
2015,07,18,02,58,16.70
2015,07,18,02,59,16.70
2015,07,18,03,00,16.70
2015,07,18,03,01,16.70
2015,07,18,03,02,16.70
2015,07,18,03,03,16.60
2015,07,18,03,04,16.60
2015,07,18,03,05,16.60
2015,07,18,03,06,16.60
2015,07,18,03,07,16.60
2015,07,18,03,08,16.60
2015,07,18,03,09,16.60
2015,07,18,03,10,16.60
2015,07,18,03,11,16.60
2015,07,18,03,12,16.60
2015,07,18,03,13,16.50
2015,07,18,03,14,16.50
2015,07,18,03,15,16.50
2015,07,18,03,16,16.50
2015,07,18,03,17,16.50
2015,07,18,03,18,16.50
2015,07,18,03,19,16.50
2015,07,18,03,20,16.50
2015,07,18,03,21,16.50
2015,07,18,03,22,16.50
2015,07,18,03,23,16.50
2015,07,18,03,24,16.40
2015,07,18,03,25,16.40
2015,07,18,03,26,16.40
2015,07,18,03,27,16.40
2015,07,18,03,28,16.40
2015,07,18,03,29,16.40
2015,07,18,03,30,16.40
2015,07,18,03,31,16.40
2015,07,18,03,32,16.40
2015,07,18,03,33,16.40
2015,07,18,03,34,16.40
2015,07,18,03,35,16.40
2015,07,18,03,36,16.40
2015,07,18,03,37,16.40
2015,07,18,03,38,16.40
2015,07,18,03,39,16.40
2015,07,18,03,40,16.40
2015,07,18,03,41,16.40
2015,07,18,03,42,16.40
2015,07,18,03,43,16.40
2015,07,18,03,44,16.40
2015,07,18,03,45,16.40
2015,07,18,03,46,16.40
2015,07,18,03,47,16.40
2015,07,18,03,48,16.40
2015,07,18,03,49,16.40
2015,07,18,03,50,16.40
2015,07,18,03,51,16.40
2015,07,18,03,52,16.40
2015,07,18,03,53,16.30
2015,07,18,03,54,16.30
2015,07,18,03,55,16.30
2015,07,18,03,56,16.30
2015,07,18,03,57,16.30
2015,07,18,03,58,16.30
2015,07,18,03,59,16.30
2015,07,18,04,00,16.30
2015,07,18,04,01,16.30
2015,07,18,04,02,16.30
2015,07,18,04,03,16.30
2015,07,18,04,04,16.30
2015,07,18,04,05,16.30
2015,07,18,04,06,16.30
2015,07,18,04,07,16.30
2015,07,18,04,08,16.30
2015,07,18,04,09,16.30
2015,07,18,04,10,16.30
2015,07,18,04,11,16.30
2015,07,18,04,12,16.30
2015,07,18,04,13,16.30
2015,07,18,04,14,16.30
2015,07,18,04,15,16.30
2015,07,18,04,16,16.30
2015,07,18,04,17,16.20
2015,07,18,04,18,16.30
2015,07,18,04,19,16.20
2015,07,18,04,20,16.20
2015,07,18,04,21,16.20
2015,07,18,04,22,16.20
2015,07,18,04,23,16.20
2015,07,18,04,24,16.20
2015,07,18,04,25,16.20
2015,07,18,04,26,16.20
2015,07,18,04,27,16.20
2015,07,18,04,28,16.10
2015,07,18,04,29,16.10
2015,07,18,04,30,16.10
2015,07,18,04,31,16.10
2015,07,18,04,32,16.10
2015,07,18,04,33,16.10
2015,07,18,04,34,16.10
2015,07,18,04,35,16.10
2015,07,18,04,36,16.00
2015,07,18,04,37,16.00
2015,07,18,04,38,16.00
2015,07,18,04,39,16.00
2015,07,18,04,40,15.90
2015,07,18,04,41,15.90
2015,07,18,04,42,15.90
2015,07,18,04,43,15.90
2015,07,18,04,44,15.90
2015,07,18,04,45,15.90
2015,07,18,04,46,15.90
2015,07,18,04,47,15.90
2015,07,18,04,48,15.80
2015,07,18,04,49,15.80
2015,07,18,04,50,15.80
2015,07,18,04,51,15.80
2015,07,18,04,52,15.80
2015,07,18,04,53,15.80
2015,07,18,04,54,15.70
2015,07,18,04,55,15.70
2015,07,18,04,56,15.70
2015,07,18,04,57,15.70
2015,07,18,04,58,15.70
2015,07,18,04,59,15.70
2015,07,18,05,00,15.70
2015,07,18,05,01,15.70
2015,07,18,05,02,15.70
2015,07,18,05,03,15.60
2015,07,18,05,04,15.60
2015,07,18,05,05,15.60
2015,07,18,05,06,15.60
2015,07,18,05,07,15.60
2015,07,18,05,08,15.60
2015,07,18,05,09,15.60
2015,07,18,05,10,15.60
2015,07,18,05,11,15.60
2015,07,18,05,12,15.60
2015,07,18,05,13,15.50
2015,07,18,05,14,15.50
2015,07,18,05,15,15.50
2015,07,18,05,16,15.50
2015,07,18,05,17,15.50
2015,07,18,05,18,15.50
2015,07,18,05,19,15.50
2015,07,18,05,20,15.40
2015,07,18,05,21,15.40
2015,07,18,05,22,15.40
2015,07,18,05,23,15.40
2015,07,18,05,24,15.40
2015,07,18,05,25,15.40
2015,07,18,05,26,15.40
2015,07,18,05,27,15.40
2015,07,18,05,28,15.40
2015,07,18,05,29,15.30
2015,07,18,05,30,15.30
2015,07,18,05,31,15.30
2015,07,18,05,32,15.30
2015,07,18,05,33,15.30
2015,07,18,05,34,15.30
2015,07,18,05,35,15.30
2015,07,18,05,36,15.30
2015,07,18,05,37,15.30
2015,07,18,05,38,15.30
2015,07,18,05,39,15.30
2015,07,18,05,40,15.20
2015,07,18,05,41,15.20
2015,07,18,05,42,15.20
2015,07,18,05,43,15.20
2015,07,18,05,44,15.20
2015,07,18,05,45,15.20
2015,07,18,05,46,15.20
2015,07,18,05,47,15.20
2015,07,18,05,48,15.20
2015,07,18,05,49,15.20
2015,07,18,05,50,15.20
2015,07,18,05,51,15.10
2015,07,18,05,52,15.10
2015,07,18,05,53,15.10
2015,07,18,05,54,15.10
2015,07,18,05,55,15.10
2015,07,18,05,56,15.10
2015,07,18,05,57,15.10
2015,07,18,05,58,15.10
2015,07,18,05,59,15.10
2015,07,18,06,00,15.10
2015,07,18,06,01,15.10
2015,07,18,06,02,15.10
2015,07,18,06,03,15.10
2015,07,18,06,04,15.10
2015,07,18,06,05,15.10
2015,07,18,06,06,15.10
2015,07,18,06,07,15.00
2015,07,18,06,08,15.00
2015,07,18,06,09,15.00
2015,07,18,06,10,15.00
2015,07,18,06,11,15.00
2015,07,18,06,12,15.00
2015,07,18,06,13,15.00
2015,07,18,06,14,15.00
2015,07,18,06,15,15.00
2015,07,18,06,16,15.00
2015,07,18,06,17,15.00
2015,07,18,06,18,15.10
2015,07,18,06,19,15.10
2015,07,18,06,20,15.10
2015,07,18,06,21,15.10
2015,07,18,06,22,15.10
2015,07,18,06,23,15.10
2015,07,18,06,24,15.10
2015,07,18,06,25,15.10
2015,07,18,06,26,15.10
2015,07,18,06,27,15.20
2015,07,18,06,28,15.20
2015,07,18,06,29,15.20
2015,07,18,06,30,15.20
2015,07,18,06,31,15.20
2015,07,18,06,32,15.20
2015,07,18,06,33,15.20
2015,07,18,06,34,15.20
2015,07,18,06,35,15.20
2015,07,18,06,36,15.30
2015,07,18,06,37,15.30
2015,07,18,06,38,15.30
2015,07,18,06,39,15.30
2015,07,18,06,40,15.30
2015,07,18,06,41,15.30
2015,07,18,06,42,15.30
2015,07,18,06,43,15.30
2015,07,18,06,44,15.30
2015,07,18,06,45,15.40
2015,07,18,06,46,15.40
2015,07,18,06,47,15.40
2015,07,18,06,48,15.40
2015,07,18,06,49,15.40
2015,07,18,06,50,15.40
2015,07,18,06,51,15.40
2015,07,18,06,52,15.50
2015,07,18,06,53,15.50
2015,07,18,06,54,15.50
2015,07,18,06,55,15.50
2015,07,18,06,56,15.60
2015,07,18,06,57,15.60
2015,07,18,06,58,15.60
2015,07,18,06,59,15.60
2015,07,18,07,00,15.60
2015,07,18,07,01,15.60
2015,07,18,07,02,15.70
2015,07,18,07,03,15.70
2015,07,18,07,04,15.70
2015,07,18,07,05,15.80
2015,07,18,07,06,15.80
2015,07,18,07,07,15.80
2015,07,18,07,08,15.80
2015,07,18,07,09,15.90
2015,07,18,07,10,15.90
2015,07,18,07,11,15.90
2015,07,18,07,12,15.90
2015,07,18,07,13,16.00
2015,07,18,07,14,16.00
2015,07,18,07,15,16.10
2015,07,18,07,16,16.10
2015,07,18,07,17,16.20
2015,07,18,07,18,16.20
2015,07,18,07,19,16.30
2015,07,18,07,20,16.30
2015,07,18,07,21,16.40
2015,07,18,07,22,16.50
2015,07,18,07,23,16.50
2015,07,18,07,24,16.60
2015,07,18,07,25,16.70
2015,07,18,07,26,16.80
2015,07,18,07,27,16.80
2015,07,18,07,28,16.90
2015,07,18,07,29,16.90
2015,07,18,07,30,17.00
2015,07,18,07,31,17.10
2015,07,18,07,32,17.10
2015,07,18,07,33,17.20
2015,07,18,07,34,17.30
2015,07,18,07,35,17.40
2015,07,18,07,36,17.50
2015,07,18,07,37,17.50
2015,07,18,07,38,17.60
2015,07,18,07,39,17.70
2015,07,18,07,40,17.70
2015,07,18,07,41,17.80
2015,07,18,07,42,17.90
2015,07,18,07,43,18.00
2015,07,18,07,44,18.10
2015,07,18,07,45,18.20
2015,07,18,07,46,18.30
2015,07,18,07,47,18.40
2015,07,18,07,48,18.50
2015,07,18,07,49,18.60
2015,07,18,07,50,18.60
2015,07,18,07,51,18.70
2015,07,18,07,52,18.80
2015,07,18,07,53,18.80
2015,07,18,07,54,19.00
2015,07,18,07,55,19.10
2015,07,18,07,56,19.20
2015,07,18,07,57,19.40
2015,07,18,07,58,19.50
2015,07,18,07,59,19.60
2015,07,18,08,00,19.70
2015,07,18,08,01,19.80
2015,07,18,08,02,19.80
2015,07,18,08,03,19.90
2015,07,18,08,04,20.00
2015,07,18,08,05,20.00
2015,07,18,08,06,20.10
2015,07,18,08,07,20.20
2015,07,18,08,08,20.30
2015,07,18,08,09,20.30
2015,07,18,08,10,20.40
2015,07,18,08,11,20.50
2015,07,18,08,12,20.60
2015,07,18,08,13,20.70
2015,07,18,08,14,20.70
2015,07,18,08,15,20.80
2015,07,18,08,16,20.90
2015,07,18,08,17,21.00
2015,07,18,08,18,21.10
2015,07,18,08,19,21.10
2015,07,18,08,20,21.20
2015,07,18,08,21,21.30
2015,07,18,08,22,21.30
2015,07,18,08,23,21.40
2015,07,18,08,24,21.40
2015,07,18,08,25,21.50
2015,07,18,08,26,21.50
2015,07,18,08,27,21.60
2015,07,18,08,28,21.60
2015,07,18,08,29,21.70
2015,07,18,08,30,21.70
2015,07,18,08,31,21.80
2015,07,18,08,32,21.80
2015,07,18,08,33,21.80
2015,07,18,08,34,21.90
2015,07,18,08,35,22.00
2015,07,18,08,36,22.00
2015,07,18,08,37,22.10
2015,07,18,08,38,22.20
2015,07,18,08,39,22.20
2015,07,18,08,40,22.30
2015,07,18,08,41,22.30
2015,07,18,08,42,22.30
2015,07,18,08,43,22.30
2015,07,18,08,44,22.40
2015,07,18,08,45,22.40
2015,07,18,08,46,22.50
2015,07,18,08,47,22.60
2015,07,18,08,48,22.60
2015,07,18,08,49,22.70
2015,07,18,08,50,22.70
2015,07,18,08,51,22.80
2015,07,18,08,52,22.80
2015,07,18,08,53,22.90
2015,07,18,08,54,22.90
2015,07,18,08,55,23.00
2015,07,18,08,56,23.00
2015,07,18,08,57,23.10
2015,07,18,08,58,23.10
2015,07,18,08,59,23.20
2015,07,18,09,00,23.20
2015,07,18,09,01,23.30
2015,07,18,09,02,23.40
2015,07,18,09,03,23.40
2015,07,18,09,04,23.50
2015,07,18,09,05,23.60
2015,07,18,09,06,23.70
2015,07,18,09,07,23.80
2015,07,18,09,08,23.90
2015,07,18,09,09,23.90
2015,07,18,09,10,23.90
2015,07,18,09,11,24.00
2015,07,18,09,12,24.10
2015,07,18,09,13,24.10
2015,07,18,09,14,24.20
2015,07,18,09,15,24.20
2015,07,18,09,16,24.30
2015,07,18,09,17,24.30
2015,07,18,09,18,24.40
2015,07,18,09,19,24.40
2015,07,18,09,20,24.50
2015,07,18,09,21,24.50
2015,07,18,09,22,24.60
2015,07,18,09,23,24.70
2015,07,18,09,24,24.70
2015,07,18,09,25,24.70
2015,07,18,09,26,24.70
2015,07,18,09,27,24.80
2015,07,18,09,28,24.80
2015,07,18,09,29,24.90
2015,07,18,09,30,24.90
2015,07,18,09,31,24.90
2015,07,18,09,32,24.90
2015,07,18,09,33,24.90
2015,07,18,09,34,24.90
2015,07,18,09,35,24.90
2015,07,18,09,36,24.90
2015,07,18,09,37,24.90
2015,07,18,09,38,24.90
2015,07,18,09,39,24.90
2015,07,18,09,40,24.90
2015,07,18,09,41,25.00
2015,07,18,09,42,25.00
2015,07,18,09,43,25.10
2015,07,18,09,44,25.10
2015,07,18,09,45,25.20
2015,07,18,09,46,25.20
2015,07,18,09,47,25.20
2015,07,18,09,48,25.20
2015,07,18,09,49,25.20
2015,07,18,09,50,25.20
2015,07,18,09,51,25.20
2015,07,18,09,52,25.20
2015,07,18,09,53,25.20
2015,07,18,09,54,25.20
2015,07,18,09,55,25.30
2015,07,18,09,56,25.40
2015,07,18,09,57,25.40
2015,07,18,09,58,25.50
2015,07,18,09,59,25.60
2015,07,18,10,00,25.60
2015,07,18,10,01,25.70
2015,07,18,10,02,25.80
2015,07,18,10,03,25.80
2015,07,18,10,04,25.80
2015,07,18,10,05,25.90
2015,07,18,10,06,26.00
2015,07,18,10,07,26.00
2015,07,18,10,08,26.00
2015,07,18,10,09,26.00
2015,07,18,10,10,26.00
2015,07,18,10,11,26.10
2015,07,18,10,12,26.20
2015,07,18,10,13,26.20
2015,07,18,10,14,26.20
2015,07,18,10,15,26.20
2015,07,18,10,16,26.30
2015,07,18,10,17,26.30
2015,07,18,10,18,26.30
2015,07,18,10,19,26.30
2015,07,18,10,20,26.40
2015,07,18,10,21,26.30
2015,07,18,10,22,26.30
2015,07,18,10,23,26.30
2015,07,18,10,24,26.30
2015,07,18,10,25,26.30
2015,07,18,10,26,26.40
2015,07,18,10,27,26.40
2015,07,18,10,28,26.50
2015,07,18,10,29,26.50
2015,07,18,10,30,26.50
2015,07,18,10,31,26.50
2015,07,18,10,32,26.60
2015,07,18,10,33,26.60
2015,07,18,10,34,26.60
2015,07,18,10,35,26.60
2015,07,18,10,36,26.60
2015,07,18,10,37,26.60
2015,07,18,10,38,26.50
2015,07,18,10,39,26.50
2015,07,18,10,40,26.40
2015,07,18,10,41,26.40
2015,07,18,10,42,26.40
2015,07,18,10,43,26.40
2015,07,18,10,44,26.30
2015,07,18,10,45,26.30
2015,07,18,10,46,26.40
2015,07,18,10,47,26.40
2015,07,18,10,48,26.60
2015,07,18,10,49,26.60
2015,07,18,10,50,26.70
2015,07,18,10,51,26.80
2015,07,18,10,52,26.90
2015,07,18,10,53,26.90
2015,07,18,10,54,27.00
2015,07,18,10,55,27.10
2015,07,18,10,56,27.10
2015,07,18,10,57,27.10
2015,07,18,10,58,27.10
2015,07,18,10,59,27.10
2015,07,18,11,00,27.10
2015,07,18,11,01,27.10
2015,07,18,11,02,27.10
2015,07,18,11,03,27.10
2015,07,18,11,04,27.10
2015,07,18,11,05,27.10
2015,07,18,11,06,27.10
2015,07,18,11,07,27.10
2015,07,18,11,08,27.20
2015,07,18,11,09,27.20
2015,07,18,11,10,27.20
2015,07,18,11,11,27.20
2015,07,18,11,12,27.20
2015,07,18,11,13,27.20
2015,07,18,11,14,27.20
2015,07,18,11,15,27.20
2015,07,18,11,16,27.10
2015,07,18,11,17,27.00
2015,07,18,11,18,26.90
2015,07,18,11,19,26.80
2015,07,18,11,20,26.80
2015,07,18,11,21,26.80
2015,07,18,11,22,26.80
2015,07,18,11,23,26.70
2015,07,18,11,24,26.70
2015,07,18,11,25,26.60
2015,07,18,11,26,26.50
2015,07,18,11,27,26.40
2015,07,18,11,28,26.30
2015,07,18,11,29,26.30
2015,07,18,11,30,26.30
2015,07,18,11,31,26.30
2015,07,18,11,32,26.30
2015,07,18,11,33,26.20
2015,07,18,11,34,26.20
2015,07,18,11,35,26.30
2015,07,18,11,36,26.40
2015,07,18,11,37,26.40
2015,07,18,11,38,26.40
2015,07,18,11,39,26.50
2015,07,18,11,40,26.50
2015,07,18,11,41,26.60
2015,07,18,11,42,26.70
2015,07,18,11,43,26.80
2015,07,18,11,44,26.90
2015,07,18,11,45,27.00
2015,07,18,11,46,27.00
2015,07,18,11,47,26.90
2015,07,18,11,48,26.90
2015,07,18,11,49,27.00
2015,07,18,11,50,27.10
2015,07,18,11,51,27.10
2015,07,18,11,52,27.10
2015,07,18,11,53,27.20
2015,07,18,11,54,27.30
2015,07,18,11,55,27.30
2015,07,18,11,56,27.30
2015,07,18,11,57,27.30
2015,07,18,11,58,27.30
2015,07,18,11,59,27.30
2015,07,18,12,00,27.40
2015,07,18,12,01,27.40
2015,07,18,12,02,27.40
2015,07,18,12,03,27.40
2015,07,18,12,04,27.30
2015,07,18,12,05,27.20
2015,07,18,12,06,27.20
2015,07,18,12,07,27.20
2015,07,18,12,08,27.10
2015,07,18,12,09,27.10
2015,07,18,12,10,27.10
2015,07,18,12,11,27.10
2015,07,18,12,12,27.10
2015,07,18,12,13,27.10
2015,07,18,12,14,27.10
2015,07,18,12,15,27.10
2015,07,18,12,16,27.20
2015,07,18,12,17,27.20
2015,07,18,12,18,27.20
2015,07,18,12,19,27.30
2015,07,18,12,20,27.40
2015,07,18,12,21,27.40
2015,07,18,12,22,27.50
2015,07,18,12,23,27.60
2015,07,18,12,24,27.70
2015,07,18,12,25,27.90
2015,07,18,12,26,28.00
2015,07,18,12,27,28.20
2015,07,18,12,28,28.20
2015,07,18,12,29,28.20
2015,07,18,12,30,28.30
2015,07,18,12,31,28.30
2015,07,18,12,32,28.40
2015,07,18,12,33,28.50
2015,07,18,12,34,28.60
2015,07,18,12,35,28.60
2015,07,18,12,36,28.60
2015,07,18,12,37,28.50
2015,07,18,12,38,28.50
2015,07,18,12,39,28.50
2015,07,18,12,40,28.50
2015,07,18,12,41,28.50
2015,07,18,12,42,28.40
2015,07,18,12,43,28.40
2015,07,18,12,44,28.50
2015,07,18,12,45,28.50
2015,07,18,12,46,28.60
2015,07,18,12,47,28.70
2015,07,18,12,48,28.70
2015,07,18,12,49,28.80
2015,07,18,12,50,28.80
2015,07,18,12,51,28.80
2015,07,18,12,52,28.90
2015,07,18,12,53,28.90
2015,07,18,12,54,29.00
2015,07,18,12,55,29.00
2015,07,18,12,56,28.90
2015,07,18,12,57,28.90
2015,07,18,12,58,28.80
2015,07,18,12,59,28.80
2015,07,18,13,00,28.80
2015,07,18,13,01,28.80
2015,07,18,13,02,28.90
2015,07,18,13,03,29.00
2015,07,18,13,04,29.10
2015,07,18,13,05,29.20
2015,07,18,13,06,29.20
2015,07,18,13,07,29.30
2015,07,18,13,08,29.40
2015,07,18,13,09,29.40
2015,07,18,13,10,29.50
2015,07,18,13,11,29.50
2015,07,18,13,12,29.40
2015,07,18,13,13,29.30
2015,07,18,13,14,29.20
2015,07,18,13,15,29.30
2015,07,18,13,16,29.30
2015,07,18,13,17,29.30
2015,07,18,13,18,29.30
2015,07,18,13,19,29.30
2015,07,18,13,20,29.20
2015,07,18,13,21,29.20
2015,07,18,13,22,29.20
2015,07,18,13,23,29.20
2015,07,18,13,24,29.30
2015,07,18,13,25,29.30
2015,07,18,13,26,29.30
2015,07,18,13,27,29.30
2015,07,18,13,28,29.40
2015,07,18,13,29,29.50
2015,07,18,13,30,29.50
2015,07,18,13,31,29.50
2015,07,18,13,32,29.60
2015,07,18,13,33,29.60
2015,07,18,13,34,29.70
2015,07,18,13,35,29.60
2015,07,18,13,36,29.60
2015,07,18,13,37,29.60
2015,07,18,13,38,29.60
2015,07,18,13,39,29.60
2015,07,18,13,40,29.60
2015,07,18,13,41,29.50
2015,07,18,13,42,29.50
2015,07,18,13,43,29.50
2015,07,18,13,44,29.60
2015,07,18,13,45,29.60
2015,07,18,13,46,29.60
2015,07,18,13,47,29.70
2015,07,18,13,48,29.70
2015,07,18,13,49,29.80
2015,07,18,13,50,29.80
2015,07,18,13,51,29.90
2015,07,18,13,52,30.00
2015,07,18,13,53,30.00
2015,07,18,13,54,30.00
2015,07,18,13,55,30.00
2015,07,18,13,56,30.00
2015,07,18,13,57,30.00
2015,07,18,13,58,30.00
2015,07,18,13,59,30.00
2015,07,18,14,00,29.90
2015,07,18,14,01,29.80
2015,07,18,14,02,29.80
2015,07,18,14,03,29.80
2015,07,18,14,04,29.70
2015,07,18,14,05,29.70
2015,07,18,14,06,29.60
2015,07,18,14,07,29.50
2015,07,18,14,08,29.60
2015,07,18,14,09,29.60
2015,07,18,14,10,29.60
2015,07,18,14,11,29.70
2015,07,18,14,12,29.70
2015,07,18,14,13,29.80
2015,07,18,14,14,29.80
2015,07,18,14,15,29.90
2015,07,18,14,16,29.90
2015,07,18,14,17,29.90
2015,07,18,14,18,30.00
2015,07,18,14,19,30.00
2015,07,18,14,20,30.10
2015,07,18,14,21,30.10
2015,07,18,14,22,30.10
2015,07,18,14,23,30.20
2015,07,18,14,24,30.30
2015,07,18,14,25,30.30
2015,07,18,14,26,30.30
2015,07,18,14,27,30.40
2015,07,18,14,28,30.40
2015,07,18,14,29,30.30
2015,07,18,14,30,30.30
2015,07,18,14,31,30.30
2015,07,18,14,32,30.40
2015,07,18,14,33,30.40
2015,07,18,14,34,30.50
2015,07,18,14,35,30.60
2015,07,18,14,36,30.50
2015,07,18,14,37,30.50
2015,07,18,14,38,30.60
2015,07,18,14,39,30.60
2015,07,18,14,40,30.60
2015,07,18,14,41,30.70
2015,07,18,14,42,30.80
2015,07,18,14,43,30.80
2015,07,18,14,44,30.90
2015,07,18,14,45,30.90
2015,07,18,14,46,31.00
2015,07,18,14,47,31.00
2015,07,18,14,48,30.90
2015,07,18,14,49,30.90
2015,07,18,14,50,30.80
2015,07,18,14,51,30.70
2015,07,18,14,52,30.70
2015,07,18,14,53,30.80
2015,07,18,14,54,30.70
2015,07,18,14,55,30.80
2015,07,18,14,56,30.80
2015,07,18,14,57,30.90
2015,07,18,14,58,31.00
2015,07,18,14,59,31.10
2015,07,18,15,00,31.10
2015,07,18,15,01,31.10
2015,07,18,15,02,31.10
2015,07,18,15,03,31.20
2015,07,18,15,04,31.20
2015,07,18,15,05,31.20
2015,07,18,15,06,31.20
2015,07,18,15,07,31.30
2015,07,18,15,08,31.30
2015,07,18,15,09,31.30
2015,07,18,15,10,31.40
2015,07,18,15,11,31.40
2015,07,18,15,12,31.40
2015,07,18,15,13,31.40
2015,07,18,15,14,31.40
2015,07,18,15,15,31.30
2015,07,18,15,16,31.30
2015,07,18,15,17,31.40
2015,07,18,15,18,31.50
2015,07,18,15,19,31.50
2015,07,18,15,20,31.60
2015,07,18,15,21,31.60
2015,07,18,15,22,31.70
2015,07,18,15,23,31.70
2015,07,18,15,24,31.80
2015,07,18,15,25,31.80
2015,07,18,15,26,31.90
2015,07,18,15,27,31.90
2015,07,18,15,28,32.00
2015,07,18,15,29,32.00
2015,07,18,15,30,32.10
2015,07,18,15,31,32.10
2015,07,18,15,32,32.10
2015,07,18,15,33,32.20
2015,07,18,15,34,32.20
2015,07,18,15,35,32.20
2015,07,18,15,36,32.30
2015,07,18,15,37,32.30
2015,07,18,15,38,32.40
2015,07,18,15,39,32.40
2015,07,18,15,40,32.50
2015,07,18,15,41,32.40
2015,07,18,15,42,32.50
2015,07,18,15,43,32.50
2015,07,18,15,44,32.40
2015,07,18,15,45,32.40
2015,07,18,15,46,32.40
2015,07,18,15,47,32.40
2015,07,18,15,48,32.40
2015,07,18,15,49,32.50
2015,07,18,15,50,32.50
2015,07,18,15,51,32.50
2015,07,18,15,52,32.50
2015,07,18,15,53,32.40
2015,07,18,15,54,32.40
2015,07,18,15,55,32.40
2015,07,18,15,56,32.40
2015,07,18,15,57,32.30
2015,07,18,15,58,32.30
2015,07,18,15,59,32.40
2015,07,18,16,00,32.40
2015,07,18,16,01,32.50
2015,07,18,16,02,32.60
2015,07,18,16,03,32.70
2015,07,18,16,04,32.80
2015,07,18,16,05,32.80
2015,07,18,16,06,33.00
2015,07,18,16,07,33.00
2015,07,18,16,08,33.00
2015,07,18,16,09,32.90
2015,07,18,16,10,32.90
2015,07,18,16,11,32.80
2015,07,18,16,12,32.80
2015,07,18,16,13,32.80
2015,07,18,16,14,32.80
2015,07,18,16,15,32.80
2015,07,18,16,16,32.80
2015,07,18,16,17,32.80
2015,07,18,16,18,32.80
2015,07,18,16,19,32.80
2015,07,18,16,20,32.80
2015,07,18,16,21,32.80
2015,07,18,16,22,32.80
2015,07,18,16,23,32.80
2015,07,18,16,24,32.80
2015,07,18,16,25,32.80
2015,07,18,16,26,32.70
2015,07,18,16,27,32.60
2015,07,18,16,28,32.60
2015,07,18,16,29,32.60
2015,07,18,16,30,32.70
2015,07,18,16,31,32.70
2015,07,18,16,32,32.70
2015,07,18,16,33,32.70
2015,07,18,16,34,32.70
2015,07,18,16,35,32.70
2015,07,18,16,36,32.70
2015,07,18,16,37,32.80
2015,07,18,16,38,32.80
2015,07,18,16,39,32.80
2015,07,18,16,40,32.80
2015,07,18,16,41,32.80
2015,07,18,16,42,32.90
2015,07,18,16,43,33.00
2015,07,18,16,44,33.00
2015,07,18,16,45,33.00
2015,07,18,16,46,33.10
2015,07,18,16,47,33.10
2015,07,18,16,48,33.10
2015,07,18,16,49,33.10
2015,07,18,16,50,33.00
2015,07,18,16,51,32.90
2015,07,18,16,52,32.90
2015,07,18,16,53,32.80
2015,07,18,16,54,32.80
2015,07,18,16,55,32.80
2015,07,18,16,56,32.90
2015,07,18,16,57,32.90
2015,07,18,16,58,33.00
2015,07,18,16,59,33.10
2015,07,18,17,00,33.10
2015,07,18,17,01,33.20
2015,07,18,17,02,33.20
2015,07,18,17,03,33.20
2015,07,18,17,04,33.20
2015,07,18,17,05,33.10
2015,07,18,17,06,33.10
2015,07,18,17,07,33.10
2015,07,18,17,08,33.10
2015,07,18,17,09,33.10
2015,07,18,17,10,33.10
2015,07,18,17,11,33.10
2015,07,18,17,12,33.10
2015,07,18,17,13,33.10
2015,07,18,17,14,33.10
2015,07,18,17,15,33.10
2015,07,18,17,16,33.00
2015,07,18,17,17,33.00
2015,07,18,17,18,33.00
2015,07,18,17,19,32.90